When you browse on this site, cookies collect data to enhance your experience and personalize the content and advertising you see.
Visit our Privacy Policy to learn more. By continuing to use the site, you agree to this use of cookies and data.
  • In Romania
  • List of Countries
  • For 7 days
  • Water Temperature
  • Satellite Maps
  • Weather Map
  • Weather Widgets
  • user-avatar
    Login

    Hourly Weather Livry-Gargan

    Today, 21 April, Sunday

    Time Temperature Precipitation Wind Pressure Humidity
    00:00 +16°C° 0 mm 2 mps 762 mmHg 72%
    01:00 +16°C° 0 mm 2 mps 761 mmHg 72%
    02:00 +15°C° 0 mm 2 mps 761 mmHg 73%
    03:00 +15°C° 0 mm 2 mps 760 mmHg 73%
    04:00 +15°C° 0 mm 2 mps 760 mmHg 72%
    05:00 +15°C° 0 mm 2 mps 760 mmHg 70%
    06:00 +15°C° 0 mm 2 mps 760 mmHg 68%
    07:00 +17°C° 0 mm 2 mps 759 mmHg 61%
    08:00 +19°C° 0 mm 2 mps 759 mmHg 54%
    09:00 +21°C° 0 mm 2 mps 759 mmHg 46%
    10:00 +22°C° 0 mm 3 mps 758 mmHg 42%
    11:00 +24°C° 0 mm 3 mps 758 mmHg 37%
    12:00 +26°C° 0 mm 3 mps 758 mmHg 32%
    13:00 +26°C° 0 mm 3 mps 757 mmHg 33%
    14:00 +26°C° 0 mm 3 mps 757 mmHg 33%
    15:00 +26°C° 0 mm 4 mps 756 mmHg 34%
    16:00 +25°C° 0 mm 3 mps 756 mmHg 38%
    17:00 +24°C° 0 mm 3 mps 755 mmHg 43%
    18:00 +22°C° 0 mm 3 mps 755 mmHg 48%
    19:00 +20°C° 0 mm 2 mps 755 mmHg 51%
    20:00 +19°C° 0 mm 2 mps 755 mmHg 54%
    21:00 +18°C° 0 mm 2 mps 755 mmHg 57%
    22:00 +17°C° 0 mm 2 mps 754 mmHg 59%
    23:00 +17°C° 0 mm 2 mps 754 mmHg 61%

    Tomorrow, 22 April, Monday

    Time Temperature Precipitation Wind Pressure Humidity
    00:00 +16°C° 0 mm 2 mps 754 mmHg 63%
    01:00 +16°C° 0 mm 2 mps 753 mmHg 67%
    02:00 +15°C° 0 mm 2 mps 753 mmHg 70%
    03:00 +15°C° 0 mm 1 mps 752 mmHg 74%
    04:00 +15°C° 0 mm 1 mps 752 mmHg 76%
    05:00 +15°C° 0 mm 1 mps 752 mmHg 79%
    06:00 +15°C° 0 mm 1 mps 751 mmHg 81%
    07:00 +18°C° 0 mm 1 mps 751 mmHg 73%
    08:00 +20°C° 0 mm 1 mps 751 mmHg 65%
    09:00 +22°C° 0 mm 1 mps 750 mmHg 56%
    10:00 +23°C° 0 mm 1 mps 750 mmHg 50%
    11:00 +24°C° 0 mm 1 mps 749 mmHg 44%
    12:00 +26°C° 0 mm 1 mps 749 mmHg 37%
    13:00 +26°C° 0 mm 2 mps 748 mmHg 38%
    14:00 +26°C° 0 mm 2 mps 748 mmHg 38%
    15:00 +26°C° 0 mm 3 mps 747 mmHg 38%
    16:00 +25°C° 0 mm 3 mps 746 mmHg 44%
    17:00 +24°C° 0 mm 3 mps 746 mmHg 50%
    18:00 +22°C° 0 mm 3 mps 746 mmHg 56%
    19:00 +20°C° 0 mm 3 mps 745 mmHg 60%
    20:00 +19°C° 0 mm 3 mps 745 mmHg 64%
    21:00 +18°C° 0 mm 2 mps 745 mmHg 68%
    22:00 +18°C° 0 mm 2 mps 745 mmHg 69%
    23:00 +17°C° 0 mm 2 mps 744 mmHg 71%

    Day after tomorrow, 23 April, Tuesday

    Time Temperature Precipitation Wind Pressure Humidity
    00:00 +16°C° 0 mm 2 mps 744 mmHg 73%
    01:00 +16°C° 0 mm 2 mps 744 mmHg 74%
    02:00 +15°C° 0 mm 2 mps 744 mmHg 74%
    03:00 +14°C° 0 mm 1 mps 743 mmHg 74%
    04:00 +14°C° 0 mm 2 mps 743 mmHg 74%
    05:00 +14°C° 0 mm 2 mps 743 mmHg 74%
    06:00 +14°C° 0 mm 2 mps 743 mmHg 74%
    07:00 +15°C° 0 mm 1 mps 743 mmHg 69%
    08:00 +18°C° 0 mm 1 mps 743 mmHg 65%
    09:00 +19°C° 0 mm 1 mps 743 mmHg 60%
    10:00 +20°C° 0 mm 1 mps 743 mmHg 57%
    11:00 +20°C° 0 mm 2 mps 743 mmHg 53%
    12:00 +23°C° 0 mm 2 mps 743 mmHg 50%
    13:00 +23°C° 0 mm 2 mps 742 mmHg 50%
    14:00 +23°C° 0 mm 2 mps 742 mmHg 49%
    15:00 +23°C° 0 mm 1 mps 742 mmHg 48%
    16:00 +23°C° 0 mm 1 mps 742 mmHg 53%
    17:00 +22°C° 0 mm 1 mps 742 mmHg 57%
    18:00 +21°C° 0 mm 1 mps 741 mmHg 62%
    19:00 +19°C° 0 mm 2 mps 742 mmHg 65%
    20:00 +19°C° 0 mm 2 mps 742 mmHg 69%
    21:00 +18°C° 0 mm 3 mps 742 mmHg 72%
    22:00 +17°C° 0 mm 3 mps 742 mmHg 74%
    23:00 +17°C° 0 mm 3 mps 742 mmHg 76%

    24 April, Wednesday

    Time Temperature Precipitation Wind Pressure Humidity
    00:00 +16°C° 0 mm 3 mps 742 mmHg 79%
    01:00 +16°C° 0 mm 3 mps 743 mmHg 81%
    02:00 +14°C° 0 mm 3 mps 743 mmHg 83%
    03:00 +14°C° 0 mm 3 mps 743 mmHg 85%
    04:00 +14°C° 0.1 mm 4 mps 744 mmHg 83%
    05:00 +13°C° 0.1 mm 4 mps 744 mmHg 82%
    06:00 +13°C° 0.1 mm 4 mps 745 mmHg 80%
    07:00 +13°C° 0 mm 4 mps 745 mmHg 76%
    08:00 +13°C° 0 mm 4 mps 746 mmHg 71%
    09:00 +14°C° 0 mm 4 mps 747 mmHg 66%
    10:00 +14°C° 0.1 mm 4 mps 747 mmHg 65%
    11:00 +14°C° 0.1 mm 3 mps 747 mmHg 65%
    12:00 +15°C° 0.1 mm 2 mps 747 mmHg 64%
    13:00 +14°C° 0.3 mm 3 mps 747 mmHg 64%
    14:00 +14°C° 0.3 mm 3 mps 747 mmHg 63%
    15:00 +15°C° 0.3 mm 4 mps 747 mmHg 63%
    16:00 +15°C° 0 mm 4 mps 747 mmHg 63%
    17:00 +14°C° 0 mm 5 mps 747 mmHg 63%
    18:00 +14°C° 0 mm 5 mps 747 mmHg 64%
    19:00 +14°C° 0 mm 5 mps 747 mmHg 66%
    20:00 +13°C° 0 mm 5 mps 748 mmHg 69%
    21:00 +12°C° 0 mm 5 mps 748 mmHg 72%
    22:00 +12°C° 0 mm 5 mps 748 mmHg 72%
    23:00 +11°C° 0 mm 4 mps 748 mmHg 71%

    25 April, Thursday

    Time Temperature Precipitation Wind Pressure Humidity
    00:00 +11°C° 0 mm 4 mps 747 mmHg 70%
    01:00 +10°C° 0.2 mm 5 mps 747 mmHg 68%
    02:00 +12°C° 0.2 mm 5 mps 747 mmHg 66%
    03:00 +11°C° 0.2 mm 6 mps 746 mmHg 64%
    04:00 +11°C° 0.8 mm 6 mps 747 mmHg 68%
    05:00 +11°C° 0.8 mm 6 mps 747 mmHg 73%
    06:00 +10°C° 0.8 mm 6 mps 747 mmHg 78%
    07:00 +11°C° 0.4 mm 6 mps 748 mmHg 77%
    08:00 +11°C° 0.4 mm 6 mps 748 mmHg 77%
    09:00 +13°C° 0.4 mm 6 mps 749 mmHg 76%
    10:00 +12°C° 0.7 mm 5 mps 749 mmHg 76%
    11:00 +12°C° 0.7 mm 5 mps 749 mmHg 76%
    12:00 +12°C° 0.7 mm 5 mps 749 mmHg 76%
    13:00 +12°C° 0.5 mm 5 mps 750 mmHg 75%
    14:00 +12°C° 0.5 mm 5 mps 750 mmHg 73%
    15:00 +12°C° 0.5 mm 5 mps 750 mmHg 71%
    16:00 +12°C° 0.2 mm 5 mps 751 mmHg 72%
    17:00 +12°C° 0.2 mm 5 mps 751 mmHg 74%
    18:00 +10°C° 0.2 mm 6 mps 752 mmHg 75%
    19:00 +10°C° 0 mm 5 mps 752 mmHg 75%
    20:00 +9°C° 0 mm 5 mps 753 mmHg 75%
    21:00 +9°C° 0 mm 5 mps 753 mmHg 75%
    22:00 +9°C° 0 mm 5 mps 753 mmHg 77%
    23:00 +8°C° 0 mm 5 mps 753 mmHg 79%

    26 April, Friday

    Time Temperature Precipitation Wind Pressure Humidity
    00:00 +8°C° 0 mm 5 mps 754 mmHg 81%
    01:00 +8°C° 0 mm 6 mps 754 mmHg 82%
    02:00 +7°C° 0 mm 6 mps 754 mmHg 83%
    03:00 +7°C° 0 mm 6 mps 754 mmHg 83%
    04:00 +7°C° 0 mm 6 mps 754 mmHg 83%
    05:00 +8°C° 0 mm 6 mps 755 mmHg 83%
    06:00 +8°C° 0 mm 6 mps 755 mmHg 83%
    07:00 +9°C° 0.3 mm 6 mps 755 mmHg 80%
    08:00 +9°C° 0.3 mm 7 mps 756 mmHg 78%
    09:00 +10°C° 0.3 mm 7 mps 756 mmHg 76%
    10:00 +11°C° 0.1 mm 7 mps 756 mmHg 71%
    11:00 +12°C° 0.1 mm 7 mps 757 mmHg 66%
    12:00 +14°C° 0.1 mm 7 mps 757 mmHg 61%
    13:00 +15°C° 0.5 mm 7 mps 757 mmHg 60%
    14:00 +15°C° 0.5 mm 7 mps 758 mmHg 59%
    15:00 +16°C° 0.5 mm 7 mps 758 mmHg 57%
    16:00 +15°C° 0.3 mm 6 mps 759 mmHg 61%
    17:00 +14°C° 0.3 mm 5 mps 759 mmHg 65%
    18:00 +13°C° 0.3 mm 4 mps 759 mmHg 69%
    19:00 +13°C° 0.1 mm 4 mps 760 mmHg 72%
    20:00 +12°C° 0.1 mm 4 mps 761 mmHg 74%
    21:00 +11°C° 0.1 mm 3 mps 761 mmHg 77%
    22:00 +11°C° 0 mm 3 mps 762 mmHg 78%
    23:00 +10°C° 0 mm 3 mps 762 mmHg 78%
    Show more